GFSSW_sfc_wetblb_231.txt.gz
Wetbulb
57.60 57.79 57.57 57.61 57.82 58.21 58.53 58.71 59.06 59.51 59.85 60.07 60.12 60.12 59.99 59.94 59.37 58.66 51.78 58.52 59.67 64.12 65.07 55.90 55.98 55.57 55.33 54.13 50.61 48.74 49.50 46.83 47.16 48.55 50.81 51.14 52.49 55.55 55.29 58.52 55.10 57.81 59.22 63.55 71.30
57.08 57.35 57.26 57.55 57.77 58.03 58.04 58.40 58.96 59.13 59.42 59.84 59.90 59.86 59.79 59.83 54.62 53.17 60.97 64.37 64.67 65.60 55.92 55.35 54.25 54.12 53.14 52.08 50.79 50.20 49.89 47.45 49.44 50.04 50.53 50.90 51.46 51.44 53.82 54.03 54.46 57.39 65.78 68.49 71.23
56.47 56.76 57.08 57.25 57.50 57.88 57.91 58.22 58.50 59.14 59.36 59.40 59.61 59.73 59.79 59.71 53.58 51.76 65.71 66.81 65.94 65.03 57.57 56.72 54.48 53.00 50.94 50.73 49.57 48.44 48.94 49.14 49.91 50.58 50.66 50.05 50.37 51.35 53.16 52.83 55.21 56.69 61.91 68.39 69.66
56.04 56.52 56.78 56.92 57.16 57.60 57.72 57.98 58.60 59.33 59.18 59.00 59.28 59.82 59.89 54.98 46.81 53.69 67.84 66.53 67.99 61.39 56.30 54.97 54.29 52.25 50.69 49.37 49.43 49.21 49.40 50.58 50.80 51.28 50.01 49.95 51.05 50.40 51.32 52.11 55.16 58.08 65.59 68.54 69.47
55.90 56.02 56.33 56.59 56.89 57.17 57.48 57.60 57.93 58.12 58.17 58.46 59.86 60.18 58.49 51.99 51.67 56.04 66.18 64.23 60.86 55.87 54.33 53.71 53.53 52.24 50.42 50.05 50.46 50.03 49.28 49.85 49.87 50.08 50.10 51.22 49.97 49.89 50.45 51.99 56.06 63.43 66.71 67.67 69.23
55.91 55.84 55.93 56.25 56.66 56.81 56.75 56.68 56.57 56.87 57.46 58.74 60.27 59.99 55.71 49.20 56.18 58.97 57.26 55.96 55.71 55.75 54.62 55.20 53.62 53.42 51.87 50.63 50.89 49.93 50.14 49.78 50.35 50.07 50.19 50.32 49.80 51.05 51.99 53.04 54.11 60.68 64.07 66.57 67.97
55.77 55.69 55.79 56.06 56.37 56.62 56.48 56.23 56.06 56.65 57.95 59.64 60.92 56.93 55.08 53.41 59.08 58.92 57.36 56.41 55.66 55.51 54.46 54.43 54.83 53.76 52.73 50.78 51.21 50.26 48.85 50.89 50.23 49.63 49.39 50.89 47.77 48.75 52.93 53.82 53.72 54.42 54.31 53.77 60.91
55.81 55.61 55.57 56.00 56.36 56.66 56.93 56.56 56.31 57.57 59.21 60.32 60.70 57.05 54.33 58.64 59.38 57.19 57.86 56.95 57.14 56.71 55.48 55.25 55.48 54.10 52.87 52.27 50.29 48.91 48.21 46.62 49.57 49.99 49.99 49.57 44.83 50.03 53.02 53.56 53.43 54.36 55.29 56.03 54.26
55.63 55.40 55.65 55.80 56.33 56.56 56.21 55.85 57.01 58.64 60.14 60.15 56.87 53.33 52.52 60.03 55.38 56.91 57.16 55.54 56.04 56.55 56.28 54.94 55.15 51.66 51.40 49.78 48.14 47.57 44.55 45.37 46.28 49.96 49.13 49.61 45.42 50.13 52.70 53.33 53.08 54.52 55.67 56.71 57.36
55.67 55.08 55.18 55.65 55.77 55.73 55.02 55.38 57.11 58.17 59.10 55.86 54.00 53.87 55.71 53.99 56.40 55.47 57.26 56.44 54.95 54.99 54.89 55.00 53.54 51.72 50.13 49.49 43.19 43.98 44.22 44.75 45.23 48.04 48.41 47.77 46.84 50.01 51.82 52.61 52.55 53.76 55.27 56.41 56.92
55.23 55.06 54.90 55.28 55.90 55.28 55.25 56.95 55.65 54.86 56.63 51.57 51.20 52.42 53.27 56.75 56.51 55.30 56.06 56.08 55.60 54.12 49.94 51.18 49.90 46.86 47.64 47.13 46.92 46.16 45.60 44.71 45.90 47.69 46.73 46.68 46.79 48.34 50.95 51.78 52.01 52.94 54.29 55.57 56.23
54.60 54.86 55.20 55.26 55.29 54.80 54.96 55.49 54.12 55.70 51.94 53.31 53.14 53.22 54.30 55.70 52.04 54.37 56.94 53.75 52.77 48.81 49.34 49.52 46.55 48.31 48.58 47.89 47.26 46.45 44.75 44.23 45.86 47.46 46.86 45.94 45.36 48.13 49.79 49.99 51.05 51.75 53.15 54.59 56.18
54.24 54.51 54.92 55.02 54.78 56.65 56.54 56.23 57.04 56.62 51.68 52.11 53.89 53.58 55.09 55.11 51.27 52.84 55.14 52.70 50.91 48.66 48.86 47.01 47.04 49.08 48.80 47.08 46.18 45.32 44.46 44.04 43.98 45.76 46.03 45.97 43.52 45.25 48.34 50.39 51.50 52.04 53.53 54.40 54.57
53.79 54.06 54.22 54.04 56.22 55.85 56.68 57.39 55.87 56.86 50.19 50.88 52.92 54.38 52.95 53.24 51.14 55.60 55.36 53.64 51.28 48.20 48.40 47.72 48.38 47.56 47.38 45.60 45.78 43.26 45.84 45.21 44.57 43.64 41.15 43.85 38.98 42.76 45.89 47.47 49.62 50.95 52.04 52.35 53.51
53.39 53.75 53.73 53.72 57.36 56.78 57.59 57.62 56.44 58.77 40.84 51.92 50.37 55.45 52.23 51.21 52.44 53.44 56.03 54.56 49.48 48.76 49.45 45.18 46.02 46.24 45.51 45.13 46.46 44.34 45.65 44.03 43.58 43.28 41.76 41.39 39.93 41.58 45.47 44.40 46.79 49.81 51.57 52.74 53.02
53.12 53.41 53.01 55.18 56.39 57.61 57.43 57.02 59.33 49.38 39.33 47.46 49.95 49.11 49.14 50.08 51.68 53.20 53.62 55.43 52.91 49.41 49.50 47.17 49.80 47.94 46.76 47.04 45.98 45.61 44.45 42.76 41.94 41.96 37.25 40.00 40.18 39.90 43.05 44.77 46.87 49.40 51.04 52.17 52.91
52.67 52.71 53.54 55.65 56.03 56.56 57.02 57.27 48.72 43.49 49.66 46.75 47.71 48.89 49.27 48.74 49.08 50.64 49.07 48.81 47.92 45.27 44.83 46.23 46.20 48.04 47.96 44.08 46.74 46.35 42.72 37.33 35.49 36.07 34.43 40.24 38.93 40.66 44.58 46.62 47.69 48.51 48.78 49.98 51.54
51.57 51.54 52.51 55.74 57.79 57.23 58.29 53.14 43.36 45.89 46.15 50.28 48.96 48.90 47.27 48.44 48.36 48.54 47.20 46.32 48.25 47.27 44.97 43.18 40.52 45.06 47.05 44.82 42.68 42.18 42.26 37.78 29.33 32.13 34.82 40.41 35.98 41.32 45.69 46.82 47.71 49.08 49.21 49.46 50.12
50.55 57.41 59.22 58.06 58.85 59.23 56.08 47.48 46.07 46.89 48.59 47.99 48.11 46.22 46.07 47.57 47.86 47.51 46.56 45.85 46.54 47.38 44.71 42.95 40.90 45.94 46.33 46.62 45.32 42.00 40.16 41.78 37.21 36.29 34.57 38.81 39.84 43.87 45.77 45.75 47.06 47.52 48.16 48.80 49.23
58.66 59.09 57.02 56.62 58.60 59.66 54.00 44.68 47.15 49.71 49.65 49.03 45.33 46.31 43.87 45.35 45.65 46.24 45.50 47.68 45.91 47.44 48.57 44.37 39.96 43.64 45.34 46.02 46.76 44.68 44.22 38.30 39.59 30.92 28.64 34.90 36.13 38.04 42.38 43.82 44.98 45.70 46.70 47.73 49.04
57.79 56.34 57.98 56.26 59.76 56.76 49.20 47.40 48.69 50.11 50.85 48.25 46.13 45.13 45.06 44.47 44.93 44.70 44.80 47.33 48.34 46.56 48.24 45.29 42.99 40.61 43.00 42.11 40.90 42.49 40.96 39.84 39.35 38.31 31.91 29.70 35.30 44.72 43.92 44.94 45.25 46.66 47.45 48.16 48.37
53.81 52.34 57.46 57.15 52.81 48.91 50.30 49.98 46.98 48.84 50.55 49.63 49.30 47.23 45.68 44.75 44.01 44.32 44.10 45.90 48.79 48.35 44.33 44.68 42.83 39.16 39.03 43.33 44.15 43.90 41.87 40.78 37.47 32.91 36.90 35.16 34.51 45.83 46.28 46.34 46.26 46.33 47.42 47.55 48.21
52.23 52.09 57.56 57.08 48.50 48.05 48.66 47.70 48.75 48.17 47.55 47.77 46.78 47.81 47.50 45.15 42.65 44.43 45.01 47.95 49.74 47.52 46.16 46.03 41.33 37.02 37.07 42.01 43.90 42.26 43.24 42.48 40.43 38.91 35.61 32.72 35.46 45.15 45.79 45.58 46.55 46.20 45.98 46.78 47.58
52.17 50.53 52.68 51.27 48.84 48.25 47.28 46.89 46.10 48.88 47.45 47.57 47.18 48.42 46.67 44.51 45.05 43.72 44.47 46.47 49.51 48.54 47.14 48.30 41.16 39.55 34.88 38.08 41.11 39.02 41.32 42.70 41.49 37.19 37.23 37.06 38.70 42.83 44.59 44.49 45.84 45.56 46.31 46.63 46.72
48.45 46.85 46.59 47.14 48.12 48.29 47.83 47.19 45.82 45.41 47.53 47.68 45.87 46.74 46.41 43.24 42.85 43.13 44.74 44.96 47.10 48.96 46.39 46.64 40.02 39.89 40.91 41.18 40.93 41.23 41.16 42.11 40.17 41.20 36.47 38.81 38.69 42.46 44.08 44.26 44.91 45.47 46.13 45.30 45.24
47.60 46.64 47.10 46.68 46.28 46.97 45.25 46.77 46.45 45.11 46.54 45.05 46.01 45.15 45.32 44.45 45.21 42.97 44.65 44.43 43.92 45.69 45.06 43.68 39.86 40.83 38.81 41.67 41.41 39.62 42.20 42.12 41.75 41.33 40.34 40.58 39.51 45.15 45.66 46.33 44.93 45.18 45.09 44.08 44.48
45.48 46.38 48.43 43.78 45.55 45.77 46.75 46.41 46.12 47.04 46.33 47.39 47.28 45.57 44.21 45.26 47.25 47.70 48.36 47.18 46.91 45.68 43.89 42.94 41.34 39.58 36.86 39.93 40.08 36.92 40.24 40.59 40.81 41.92 41.42 36.68 41.28 44.77 43.77 43.42 44.32 44.75 45.05 43.86 44.52

GFSSW_sfc_wetblb_234.txt.gz
Wetbulb
57.79 57.95 58.02 57.91 58.15 58.46 58.74 59.24 59.42 59.77 60.18 60.57 60.57 60.57 60.52 60.50 59.29 62.72 55.83 59.94 61.53 65.11 64.07 59.41 59.26 59.36 59.60 56.61 55.94 55.26 53.02 51.62 51.16 52.87 54.35 57.05 56.09 62.85 62.76 62.21 61.12 60.96 61.67 66.30 73.78
57.13 57.48 57.65 57.76 58.05 58.57 58.62 58.91 59.19 59.44 59.74 59.98 60.33 60.33 60.39 60.35 60.49 56.71 63.44 65.98 66.39 65.92 59.52 58.32 56.95 57.99 56.38 55.15 56.29 54.54 54.07 51.58 54.41 55.28 55.05 55.45 55.89 59.37 58.70 59.08 60.06 59.33 64.32 68.33 72.89
56.70 57.03 57.42 57.57 57.90 58.39 58.42 58.68 59.04 59.41 59.68 59.87 59.85 60.26 60.37 61.86 56.68 55.63 66.63 68.71 66.70 65.20 59.97 59.25 58.10 56.92 54.33 55.84 54.39 54.84 52.19 53.68 53.77 54.95 55.13 53.89 53.72 56.16 55.82 56.06 57.31 56.18 58.81 66.18 70.81
56.38 56.69 57.08 57.34 57.55 57.92 58.22 58.44 58.85 59.61 59.55 59.35 59.50 60.32 60.77 60.54 49.65 57.73 67.90 67.79 67.81 63.19 59.40 58.28 57.28 54.77 53.29 52.14 54.74 52.31 53.85 53.99 53.58 53.55 53.14 52.59 54.12 53.48 54.92 55.31 57.28 58.37 64.19 63.49 65.46
56.33 56.53 56.71 56.80 57.27 57.65 57.69 58.12 58.32 58.52 58.52 58.67 59.91 60.64 62.78 54.90 54.99 60.26 66.96 66.06 62.62 59.41 57.82 57.07 55.67 55.13 52.17 52.84 53.72 52.60 52.66 53.27 53.52 53.69 53.79 54.52 52.75 53.29 55.29 56.92 58.89 63.67 64.75 64.52 64.80
56.13 56.27 56.23 56.65 57.03 57.31 57.17 57.00 56.96 57.21 57.73 58.88 60.55 60.07 57.27 51.72 60.34 61.78 61.00 59.51 59.60 59.13 57.89 57.83 56.21 56.91 54.41 53.43 53.53 53.51 53.09 53.10 53.53 53.55 53.48 53.29 53.82 54.17 56.14 58.26 57.87 58.72 60.00 62.09 64.53
56.19 55.95 56.12 56.51 56.85 57.02 56.95 56.73 56.61 57.08 58.33 60.07 61.23 60.95 56.43 54.28 61.29 61.69 60.73 59.70 59.60 58.92 57.16 58.33 58.14 56.37 56.34 53.80 55.46 54.48 52.03 53.28 53.26 52.84 52.02 54.05 52.14 52.49 56.53 58.24 57.27 58.28 59.40 60.10 60.69
55.95 55.86 56.18 56.41 56.86 57.04 57.17 57.04 56.88 57.86 59.57 60.88 61.40 61.00 55.13 60.63 61.77 60.44 61.10 59.88 60.64 60.23 59.36 59.09 59.57 57.63 56.13 56.70 54.01 52.15 52.24 49.92 52.80 52.86 52.22 52.49 49.53 53.55 56.99 57.40 57.29 58.30 59.31 60.05 61.42
56.05 55.46 55.89 56.42 56.62 56.67 56.56 56.22 57.39 59.17 60.65 61.01 60.10 57.76 54.28 62.19 57.83 59.70 60.55 58.36 59.14 59.63 58.97 58.34 58.87 56.02 55.58 52.79 50.75 51.79 48.33 48.83 49.91 53.17 52.47 52.41 50.37 53.72 56.43 56.83 56.81 58.17 59.44 60.29 61.18
56.07 55.46 55.58 55.93 56.59 56.44 55.82 56.01 58.25 58.89 61.58 58.83 56.71 56.45 57.07 55.19 58.41 58.30 60.25 59.51 57.84 58.34 57.79 57.19 57.83 53.84 53.48 51.53 46.88 47.35 47.41 48.56 48.65 50.92 51.75 51.08 51.07 53.26 55.29 55.82 56.17 57.50 58.87 59.94 60.51
55.69 55.50 55.42 55.67 55.98 55.64 58.95 61.52 58.80 58.33 58.67 53.43 55.43 55.27 56.03 58.83 59.24 57.81 59.13 58.53 58.23 56.92 53.06 55.21 53.73 51.10 50.73 51.78 51.07 49.96 48.76 47.84 49.65 51.01 50.54 50.53 50.75 52.00 54.06 54.88 55.33 56.38 57.89 58.93 60.06
54.99 55.34 55.58 55.55 55.69 55.49 60.92 59.58 58.09 58.89 55.24 56.62 56.45 56.66 57.70 58.63 54.13 56.93 60.18 55.99 54.37 51.17 53.58 52.41 49.68 51.66 51.83 51.19 50.16 49.50 48.26 48.13 49.83 50.47 50.36 50.67 49.53 51.65 53.08 53.48 54.81 55.50 56.58 57.53 58.86
54.47 54.74 55.27 55.39 55.36 61.75 61.26 59.63 61.90 60.69 55.62 53.53 56.18 56.05 56.71 57.50 54.04 55.26 57.95 56.36 54.06 51.78 51.62 50.27 50.36 52.02 51.06 50.02 49.04 49.25 48.21 47.87 47.68 49.73 50.77 49.78 48.76 49.67 52.07 53.61 54.24 55.28 56.13 56.84 57.26
54.09 54.39 54.48 54.56 58.49 62.83 60.06 62.26 61.91 61.26 52.37 51.96 53.65 55.97 56.23 55.94 53.16 57.87 58.31 56.30 54.02 51.27 51.94 50.68 51.52 50.63 50.14 48.79 49.76 47.05 49.34 48.30 47.83 47.34 44.48 49.59 42.54 48.94 50.73 51.15 52.34 53.42 54.60 55.19 56.03
53.74 54.21 54.05 53.68 63.11 60.87 60.89 63.29 62.42 61.73 44.11 53.55 53.67 59.01 56.13 53.49 54.91 55.18 59.22 56.64 52.38 52.00 52.65 48.74 49.41 49.46 48.64 48.00 49.35 47.17 49.08 47.66 47.29 46.37 46.28 46.09 43.60 47.75 50.48 48.88 50.85 52.65 53.84 54.82 55.81
53.45 53.68 53.76 60.51 63.86 60.95 62.55 62.91 62.37 52.07 43.10 49.30 52.24 51.77 52.33 52.80 53.55 55.44 55.55 57.84 56.13 52.58 52.95 51.06 52.56 50.93 49.57 49.62 48.91 49.37 47.82 47.41 47.06 45.79 41.12 44.96 43.18 44.26 47.13 49.26 50.98 52.25 53.48 53.65 54.68
53.21 53.18 58.77 60.71 59.81 61.56 63.56 60.10 51.27 47.05 52.35 48.78 49.79 51.38 50.98 50.65 51.40 52.65 52.20 52.37 50.99 48.25 48.52 49.65 49.66 50.85 50.52 48.30 49.42 48.08 46.06 41.64 39.99 40.29 39.16 45.23 42.03 44.40 49.32 50.38 51.31 51.91 52.71 53.62 54.18
51.89 52.08 55.62 62.55 65.29 63.89 63.05 55.35 46.77 49.05 49.58 52.62 51.46 51.12 49.54 51.21 51.37 51.44 50.66 50.28 51.92 51.43 49.18 46.77 44.54 48.44 49.26 47.06 45.22 45.50 45.10 41.35 33.49 36.68 38.97 44.35 39.77 45.94 50.39 51.08 52.16 52.68 52.87 53.48 53.95
50.82 64.20 65.05 63.19 64.71 65.01 58.92 50.00 50.65 50.28 51.73 50.81 51.29 49.50 49.43 50.77 51.01 51.01 50.77 50.03 50.30 51.74 48.14 47.43 45.45 48.67 48.56 49.15 48.01 45.47 45.70 46.71 42.28 43.40 39.75 43.68 44.21 48.38 49.64 49.62 50.38 50.96 51.66 52.34 53.17
65.34 64.10 62.08 62.62 64.19 63.03 54.77 48.04 51.52 52.45 52.32 52.08 48.89 50.23 47.89 48.95 48.70 49.59 49.75 50.64 49.03 50.80 53.13 49.27 44.56 47.11 47.66 48.83 49.29 47.98 48.13 43.06 44.61 34.53 33.27 40.05 40.02 41.43 46.08 47.77 49.53 49.94 50.84 51.79 52.76
64.40 59.21 61.71 62.72 63.95 58.79 50.92 51.90 51.76 52.83 53.50 51.71 50.04 49.33 49.34 48.14 48.53 48.54 48.67 50.13 50.71 49.55 52.14 50.65 47.54 45.39 46.42 45.20 44.50 46.16 45.43 44.58 43.60 41.47 36.11 34.95 39.80 47.39 46.64 48.29 48.55 49.89 50.89 51.53 51.73
61.65 56.10 61.98 63.39 55.88 58.53 53.75 52.84 48.69 52.03 53.75 52.40 52.62 50.91 49.47 48.79 48.00 47.83 47.73 49.67 51.06 51.21 47.90 49.92 48.40 43.36 43.20 47.15 48.33 47.40 45.63 44.35 41.71 38.12 41.72 40.11 39.52 49.19 48.56 49.76 50.31 49.99 50.71 51.46 51.66
57.43 58.86 63.29 61.68 51.85 53.37 53.48 51.40 52.16 51.12 51.29 51.08 50.33 51.43 51.49 49.34 46.40 48.12 48.58 50.90 51.56 50.49 49.16 50.38 46.64 41.71 41.81 45.87 47.76 45.39 46.80 46.83 45.72 45.17 40.38 37.93 39.78 49.60 50.11 49.95 48.98 48.08 48.44 50.51 51.30
57.24 53.59 57.86 59.71 57.28 54.41 52.52 51.62 50.17 51.53 50.73 51.60 51.00 51.83 50.35 48.53 50.07 47.65 48.03 49.29 51.67 51.56 47.69 51.91 47.49 44.67 39.90 41.93 44.98 42.73 44.48 45.94 45.66 41.57 41.52 41.55 42.62 45.99 47.33 47.81 49.02 47.78 49.84 50.09 50.09
56.11 54.19 53.36 53.74 53.45 54.49 53.35 52.01 50.04 48.75 51.33 52.05 49.98 50.32 49.33 46.92 47.36 47.31 48.78 49.16 50.16 49.37 50.79 50.95 44.74 45.18 45.08 45.04 45.17 44.54 44.18 44.77 43.92 44.84 41.10 42.65 42.16 45.15 46.97 47.75 48.43 48.39 48.87 48.42 48.03
53.70 52.87 54.81 55.20 52.51 52.56 49.41 51.51 50.13 49.85 50.83 49.59 49.57 49.84 50.42 48.11 48.42 46.70 48.13 48.48 47.89 50.11 49.51 50.22 45.29 45.37 43.63 45.60 45.37 43.33 44.87 45.42 45.37 44.75 43.70 43.39 42.47 48.01 48.92 48.78 47.63 47.63 47.34 46.72 47.15
54.36 54.92 53.73 48.54 51.31 51.04 52.14 51.27 50.20 51.52 50.57 51.46 51.23 50.04 48.57 48.86 50.62 51.26 52.11 50.81 50.75 48.58 48.74 47.48 45.04 44.03 41.04 44.27 44.25 41.12 44.84 44.38 44.20 45.38 44.50 40.08 44.62 47.82 46.31 46.24 46.83 47.25 47.42 47.05 46.76

GFSSW_sfc_wetblb_237.txt.gz
Wetbulb
58.06 58.35 58.52 58.59 58.81 59.02 59.41 59.85 60.01 60.35 60.64 60.96 61.03 61.05 61.09 61.09 59.91 62.83 57.71 61.44 63.66 66.39 63.58 61.19 60.56 60.55 60.70 59.44 58.86 58.86 52.74 52.18 53.05 53.14 55.82 58.37 57.48 62.21 61.52 61.91 60.48 60.50 61.28 67.12 72.66
57.58 57.86 58.18 58.46 58.70 59.27 59.33 59.46 59.89 60.11 60.33 60.45 60.60 60.61 60.83 61.05 61.75 58.08 62.21 68.32 69.39 68.67 61.06 59.48 58.27 58.89 57.72 57.53 57.36 55.55 53.70 53.73 56.66 57.05 56.35 56.78 57.38 59.43 58.63 58.69 59.75 58.78 62.33 66.49 70.96
57.02 57.67 58.01 58.17 58.55 59.11 59.11 59.15 59.37 60.09 60.14 60.06 60.12 60.33 60.76 61.61 59.14 57.31 67.92 69.45 68.89 66.08 63.21 61.02 59.85 58.51 56.10 57.28 56.10 56.27 53.56 55.61 55.04 56.83 57.25 56.11 55.02 56.95 56.84 56.34 57.93 56.55 59.77 63.48 67.58
56.85 57.35 57.83 57.93 58.15 58.66 58.72 59.01 59.33 60.06 60.01 59.66 59.73 60.18 61.07 62.56 51.64 59.20 68.73 69.31 68.56 65.21 61.50 59.23 58.33 56.11 54.57 53.47 55.76 53.07 55.39 55.16 54.98 55.16 54.90 53.87 56.08 54.93 56.17 55.78 58.02 59.31 62.51 62.72 63.32
56.82 57.21 57.39 57.56 57.90 58.23 58.25 58.61 58.85 59.02 58.85 59.12 59.80 60.94 63.23 57.45 56.37 61.94 68.94 68.65 62.90 61.22 59.15 58.44 56.90 55.83 53.38 53.99 54.32 53.59 53.93 54.44 54.82 54.67 54.84 55.26 54.02 55.00 55.90 57.70 59.05 61.16 60.65 62.38 63.95
56.70 57.00 56.99 57.35 57.75 57.81 57.69 57.64 57.54 57.83 58.07 59.06 60.43 60.26 60.15 53.60 60.52 61.40 60.78 60.78 60.39 60.39 58.62 59.13 57.08 58.16 54.92 54.27 54.10 54.86 53.75 53.75 54.38 54.87 54.67 54.00 54.09 55.43 57.04 58.58 58.05 58.61 59.53 60.60 61.36
56.50 56.65 56.86 57.38 57.48 57.74 57.42 57.20 57.03 57.75 58.61 60.33 62.15 62.94 58.76 55.58 60.93 62.01 61.77 60.43 60.70 59.80 58.08 59.07 59.41 56.64 56.52 54.02 55.89 54.34 52.24 53.59 53.86 54.09 53.30 55.21 52.82 53.71 57.41 58.51 57.79 58.40 59.36 60.35 61.22
56.38 56.30 56.67 57.26 57.45 57.49 57.52 57.38 57.46 58.15 59.89 61.60 62.54 62.29 56.35 60.58 62.78 61.34 62.17 60.66 61.69 61.31 60.11 60.09 59.95 58.45 56.77 57.76 54.30 52.88 53.47 50.78 54.12 53.98 53.91 53.84 50.54 54.81 57.56 57.53 57.26 58.34 59.27 60.47 63.08
56.59 56.40 56.44 57.16 57.52 57.56 57.22 57.02 57.89 59.90 61.48 62.14 62.34 61.46 54.88 63.23 59.01 60.76 61.68 59.11 60.05 60.71 60.62 59.86 59.95 56.83 55.72 52.97 51.77 52.54 49.08 50.38 51.56 54.36 53.85 53.15 52.33 55.73 57.61 57.55 57.09 58.39 59.56 60.53 62.11
56.69 56.18 56.11 56.67 57.09 56.93 56.46 56.37 58.63 59.53 61.93 61.53 58.17 57.43 57.47 56.36 59.00 59.67 61.62 60.61 58.69 58.97 58.40 58.57 57.53 55.01 54.17 52.21 47.53 49.64 49.38 49.96 49.77 53.31 53.17 52.17 52.56 55.23 56.82 56.87 56.98 58.06 59.17 60.31 61.27
56.19 56.26 56.21 56.34 56.59 56.31 58.19 62.06 57.96 57.28 57.58 55.80 57.04 56.64 56.65 59.11 60.42 58.92 60.05 59.00 58.86 57.78 54.32 56.03 53.47 51.93 53.23 53.75 53.06 52.25 50.30 49.53 51.52 53.53 51.94 51.68 52.34 54.11 56.21 56.34 56.36 57.00 58.10 59.12 60.09
55.56 55.80 56.37 56.32 56.44 56.29 60.96 60.43 59.85 60.79 56.32 56.36 58.00 57.61 58.57 59.19 55.37 57.95 61.58 56.98 55.88 53.12 54.16 52.87 51.59 53.91 53.24 52.83 51.87 51.36 50.08 50.02 51.52 52.67 51.86 51.78 51.92 54.32 55.26 55.60 56.55 56.54 56.94 57.57 59.05
54.97 55.24 55.83 56.05 55.91 60.80 62.37 60.48 63.10 62.25 57.66 54.61 57.37 57.07 57.30 58.26 55.45 56.17 58.91 57.41 54.32 52.11 52.47 52.12 52.71 53.11 52.18 51.13 50.68 51.40 49.84 50.28 49.64 51.95 53.14 51.61 50.15 52.80 54.77 55.57 55.88 56.38 56.99 57.48 57.52
54.50 54.83 55.09 54.83 58.81 62.68 61.00 63.09 63.61 63.27 53.72 51.69 54.36 56.80 57.41 57.74 54.51 58.78 59.47 57.74 55.13 52.33 52.59 52.01 53.30 51.85 51.47 50.07 50.93 48.08 52.13 50.45 48.98 48.62 45.46 51.96 44.64 51.11 53.75 53.72 54.41 55.03 55.40 56.64 57.11
54.05 54.64 54.67 52.80 64.48 62.02 62.44 64.14 63.63 63.40 46.48 53.93 54.82 60.52 57.87 55.03 56.27 56.05 59.47 58.12 53.71 53.00 53.71 51.40 51.10 51.01 50.42 50.58 51.39 49.09 50.44 48.88 48.46 47.25 47.22 47.21 45.50 49.63 53.27 51.48 53.08 54.55 55.72 56.42 57.49
53.85 54.46 54.51 60.88 64.38 62.53 63.44 63.94 62.58 52.71 45.49 51.90 54.54 53.64 53.47 54.56 54.66 56.59 56.76 58.14 57.18 53.99 54.13 53.06 54.75 53.05 52.19 52.43 50.98 50.99 49.35 49.78 49.66 47.89 42.67 47.16 46.61 44.79 49.58 51.38 51.63 54.69 55.15 55.66 56.53
53.40 54.24 58.29 62.29 61.90 63.89 63.57 60.52 51.34 47.18 54.76 50.56 51.09 53.23 53.44 52.23 53.19 53.86 53.92 54.27 52.68 50.37 50.50 52.14 52.24 53.32 52.93 50.49 51.96 49.99 48.12 43.33 42.20 42.54 41.95 47.48 44.61 46.13 52.11 52.75 53.03 52.95 54.58 55.48 56.44
52.01 51.67 58.81 63.32 65.52 64.77 62.81 55.95 47.93 51.54 51.20 53.90 52.84 52.70 50.62 52.73 52.78 53.13 52.69 51.95 54.82 52.88 50.36 48.15 46.41 51.17 52.00 49.61 47.20 47.32 46.54 42.91 36.42 38.87 41.28 46.44 42.36 48.07 53.17 53.77 53.70 54.23 54.52 55.43 55.39
50.63 63.53 62.85 66.74 66.97 64.84 59.87 51.09 51.97 51.86 53.49 52.16 52.72 50.63 51.20 52.62 52.30 52.97 52.79 52.66 53.71 53.80 49.62 49.08 47.79 51.47 51.13 50.81 49.26 47.57 47.16 48.21 43.84 46.10 42.18 44.53 46.03 51.41 52.05 51.62 52.52 52.85 53.46 53.23 53.83
64.78 63.77 63.82 65.66 66.93 63.17 56.26 50.94 53.72 55.05 54.57 54.23 50.37 51.79 50.30 52.00 50.74 51.90 51.99 53.74 51.86 53.39 55.18 52.06 46.98 50.94 50.58 50.11 50.90 48.54 49.82 44.78 46.79 37.10 35.87 41.66 42.80 44.76 48.32 49.74 51.02 51.53 52.38 53.39 54.16
65.35 60.51 63.81 66.03 64.51 60.12 52.30 53.25 53.69 55.47 55.91 54.00 52.58 51.71 51.85 51.09 51.38 51.42 50.50 52.84 53.02 52.10 54.20 52.90 50.24 48.52 48.81 47.69 47.09 48.11 47.15 47.32 46.10 44.96 38.69 37.43 41.98 50.14 49.37 50.29 50.00 51.30 52.56 53.45 52.28
62.72 56.43 64.20 64.82 57.03 59.08 55.31 54.14 48.59 54.52 56.42 55.10 55.38 53.97 52.23 51.84 50.79 49.99 49.30 52.44 53.65 53.56 50.29 53.14 50.95 46.19 47.10 49.95 49.61 48.76 47.34 46.35 43.45 41.53 44.41 42.74 42.41 51.84 51.39 51.83 52.16 52.07 52.75 52.42 53.04
57.30 57.79 64.34 63.17 53.27 54.45 56.53 53.64 54.46 53.63 54.13 53.79 53.16 53.97 54.09 51.34 48.66 50.39 50.68 53.74 53.18 52.69 51.57 53.18 48.48 44.31 45.28 48.55 49.63 47.21 48.62 49.08 48.52 47.46 42.96 41.07 42.65 52.17 52.28 51.18 51.86 51.20 51.20 51.63 51.80
57.50 53.57 58.56 58.99 59.05 56.39 54.45 53.68 52.73 54.46 53.88 54.51 53.72 53.92 52.25 50.82 52.43 50.23 49.88 51.58 53.15 53.43 50.72 51.88 49.82 47.27 42.89 45.09 47.19 45.24 46.76 47.90 47.58 45.08 43.64 44.17 45.23 48.64 49.39 49.52 50.58 50.45 50.66 50.30 50.53
58.30 57.31 57.58 54.24 55.22 55.73 55.81 54.46 52.57 51.48 54.51 54.79 52.61 52.46 51.54 49.39 49.98 49.69 50.99 52.12 52.32 50.26 51.99 52.57 47.10 48.65 48.21 47.53 46.84 45.97 45.73 46.04 45.26 46.35 43.84 45.42 44.92 47.26 48.77 49.30 49.69 50.11 49.97 49.76 49.60
54.43 54.46 58.95 54.99 56.54 54.82 50.54 53.41 52.28 52.86 52.78 51.79 51.64 52.38 52.34 50.98 51.17 49.46 50.54 51.77 50.84 53.45 51.72 53.11 46.18 47.43 45.52 47.46 47.32 45.41 46.62 46.88 46.65 46.92 46.88 46.30 45.00 50.22 50.94 50.79 49.21 48.95 49.14 48.61 49.33
58.54 58.94 55.98 51.29 54.19 52.83 53.27 54.30 53.30 54.58 54.44 54.52 53.47 52.54 51.26 52.22 53.22 53.83 54.25 54.66 53.43 50.85 50.92 50.59 48.50 45.98 43.02 46.95 46.78 43.41 47.48 47.22 46.97 47.72 46.98 42.68 46.60 49.30 48.70 48.41 48.36 48.57 49.23 48.91 48.52

GFSSW_sfc_wetblb_240.txt.gz
Wetbulb
58.61 58.87 58.93 59.17 59.27 59.67 60.14 60.20 60.43 60.62 60.95 61.19 61.14 61.27 61.27 61.53 60.71 61.40 58.72 60.72 63.94 68.48 64.21 59.34 60.30 59.78 60.06 58.05 59.12 57.98 51.01 49.65 52.46 53.71 55.19 58.07 56.85 61.21 61.44 60.28 60.66 60.40 66.42 65.09 70.22
58.13 58.42 58.76 58.89 59.38 59.77 59.81 59.97 60.05 60.29 60.62 60.69 60.90 60.82 60.78 61.33 59.93 59.00 64.10 69.07 69.04 69.99 59.43 58.84 57.95 58.41 56.50 56.69 57.32 54.53 51.67 52.19 56.06 56.39 56.02 56.67 56.27 57.50 57.35 58.46 57.40 58.77 68.53 69.51 69.53
57.87 58.27 58.50 58.87 59.12 59.43 59.45 59.45 59.73 60.27 60.45 60.38 60.30 60.30 60.58 60.80 58.19 57.30 68.29 69.50 68.61 67.60 61.60 62.12 60.15 58.40 55.58 57.06 56.08 55.15 52.14 55.40 55.52 56.27 56.57 55.45 54.64 56.90 55.89 54.58 57.23 55.36 59.81 65.07 66.95
57.74 58.07 58.27 58.59 58.63 59.23 58.93 59.22 59.60 60.26 60.19 59.86 59.70 60.06 60.86 61.26 51.49 58.79 69.31 69.84 69.28 63.66 61.75 59.73 57.77 55.43 54.34 53.12 55.58 52.10 55.28 55.05 54.70 54.91 54.50 53.55 55.58 54.82 55.02 54.91 58.18 60.40 61.78 62.63 63.32
57.52 57.89 58.00 58.17 58.65 58.59 58.63 58.84 59.14 59.27 59.19 59.24 59.64 60.74 61.48 56.68 56.38 60.81 70.63 69.42 62.58 61.32 60.18 58.70 56.51 56.15 53.14 53.91 54.15 52.86 54.10 54.45 54.75 54.25 54.65 55.08 53.88 54.74 54.78 57.00 58.74 60.30 60.77 61.20 61.86
57.45 57.74 57.84 58.39 58.41 58.33 58.08 57.94 57.84 57.99 58.37 59.16 60.20 60.06 60.15 53.45 60.49 61.29 60.87 60.41 60.51 59.53 59.11 58.65 57.50 57.59 55.42 53.95 53.36 55.37 53.83 53.67 54.20 54.32 54.24 53.31 53.26 54.79 55.92 57.35 57.94 58.26 58.90 59.67 60.46
57.24 57.41 57.76 58.05 58.16 58.10 57.93 57.51 57.36 57.74 58.86 60.18 61.99 61.31 58.02 56.34 60.83 61.79 61.68 60.35 60.59 59.81 57.96 59.18 59.19 56.52 56.95 53.85 55.97 54.46 51.24 52.71 53.24 53.59 52.97 54.37 52.00 52.80 56.68 57.63 57.42 58.19 59.14 60.30 62.92
57.13 57.19 57.15 57.84 58.10 58.10 58.10 57.91 57.82 58.36 59.90 61.12 62.94 59.87 58.06 60.57 62.21 61.24 62.14 60.77 61.26 61.07 59.84 60.19 59.53 57.14 56.46 57.85 54.44 52.05 52.66 49.43 53.30 53.64 53.65 52.71 48.58 55.02 56.97 56.79 56.83 57.90 58.93 60.86 62.52
57.19 57.19 57.28 57.65 58.04 58.03 57.69 57.44 58.03 59.82 61.52 61.92 61.12 60.23 55.95 63.53 58.89 60.76 61.56 59.25 59.69 60.35 60.35 59.74 58.69 56.17 55.91 51.76 50.46 51.76 47.78 49.63 51.24 54.80 53.83 52.36 51.11 55.66 57.24 57.11 56.78 57.81 59.12 60.27 61.41
57.23 56.93 56.96 57.15 57.67 57.44 56.86 57.14 60.16 59.06 62.78 60.53 59.94 56.08 57.93 56.12 58.98 59.80 61.32 60.16 58.60 58.50 57.60 57.69 56.66 54.02 53.45 51.06 46.03 48.78 49.21 50.41 50.31 52.90 52.93 51.37 52.85 55.68 56.79 56.39 56.58 57.78 58.79 59.68 60.19
56.63 56.58 56.54 56.89 57.41 56.77 57.45 61.08 55.93 54.90 58.26 55.74 56.58 57.20 57.13 59.16 59.87 59.07 59.88 59.26 58.31 57.18 53.47 56.64 52.07 50.93 53.05 53.55 52.39 51.44 50.55 49.73 51.31 53.94 51.86 51.38 50.96 54.71 56.49 55.77 56.24 56.83 57.79 58.49 59.40
55.76 56.05 56.66 56.79 56.74 56.71 58.91 60.55 60.21 61.18 55.60 57.22 57.84 58.00 58.61 59.25 55.45 57.89 61.24 57.20 55.53 52.32 55.14 52.97 50.00 54.12 53.77 52.56 51.13 50.24 48.97 49.04 51.57 53.27 52.26 51.23 50.43 53.28 55.79 55.72 56.11 56.07 56.75 57.18 58.24
55.28 55.46 56.10 56.35 56.15 58.93 62.17 60.29 62.41 61.74 56.90 54.93 57.10 56.80 56.88 58.14 55.79 56.43 59.22 57.25 55.02 52.53 52.17 50.74 52.39 53.70 52.20 51.29 50.43 50.59 49.77 49.76 49.36 51.81 52.70 51.33 49.39 51.43 55.28 56.14 56.50 56.31 56.93 57.16 57.07
54.75 55.26 55.59 55.12 58.22 63.17 60.56 62.19 62.77 63.25 53.71 51.87 53.67 56.52 57.89 57.65 54.38 58.75 59.33 57.42 55.13 52.79 52.88 52.10 53.78 52.20 51.15 50.59 51.37 47.53 51.11 50.42 49.66 47.64 43.66 50.70 42.74 50.19 53.26 53.56 54.62 55.39 55.77 56.19 56.93
54.38 55.04 55.32 52.75 61.70 61.58 63.09 63.68 63.28 62.08 46.15 53.17 54.21 60.68 57.86 55.34 56.21 55.93 59.55 58.14 54.04 53.48 52.81 51.78 51.77 51.23 50.55 51.11 52.05 48.64 50.64 48.69 48.11 46.45 45.96 45.73 43.73 47.58 53.45 51.63 53.32 55.03 56.01 56.27 56.97
54.08 54.79 54.83 59.63 62.17 63.23 62.80 63.43 61.39 50.73 44.76 52.30 55.17 54.01 53.60 54.49 54.99 56.81 56.40 58.19 57.59 53.92 54.21 53.21 55.43 53.09 52.25 52.79 52.51 52.25 49.26 49.37 49.04 47.31 41.94 46.21 45.23 45.99 49.79 51.65 52.54 55.00 55.90 56.40 56.30
53.65 54.36 56.21 62.05 61.20 64.33 63.44 59.67 50.29 45.76 55.29 51.87 51.71 53.19 52.87 52.10 53.49 54.15 54.06 53.89 52.37 49.76 50.15 52.79 52.59 53.66 53.56 50.84 52.09 50.75 47.84 41.34 41.98 41.66 40.92 47.55 45.03 47.09 51.87 53.07 52.91 52.50 53.62 55.13 55.87
51.99 51.38 59.08 61.89 64.38 65.13 61.93 55.01 46.41 51.88 52.14 54.49 52.63 52.65 50.70 53.15 52.64 53.67 52.49 51.38 54.89 53.39 49.71 47.54 45.98 52.18 53.84 50.50 47.72 47.25 46.73 40.88 36.33 38.13 40.38 46.38 42.37 46.54 52.98 53.68 54.08 54.31 54.14 54.51 54.52
50.76 62.40 61.90 63.91 65.40 63.93 58.83 49.78 49.45 53.58 54.13 52.47 52.73 50.43 50.41 52.78 52.53 53.22 52.81 52.37 54.24 54.40 48.49 48.04 47.43 52.31 52.44 51.98 49.61 47.41 44.97 48.28 42.83 44.21 41.29 43.90 47.15 50.75 52.24 52.04 52.50 52.34 53.21 53.63 54.70
61.14 64.51 63.76 66.30 66.15 62.46 55.69 49.90 54.78 56.46 55.44 53.94 49.93 51.66 49.62 51.29 51.51 51.57 51.71 54.65 53.07 54.19 55.16 51.38 46.41 52.28 51.48 51.72 50.32 48.23 49.74 43.03 46.29 36.90 35.29 40.75 42.23 43.72 48.22 49.40 51.00 51.04 51.36 53.46 54.66
63.13 61.40 64.67 66.14 64.39 58.76 52.44 53.11 54.83 56.37 56.34 53.63 52.83 52.28 52.57 51.69 52.20 51.25 51.50 53.75 54.29 53.39 54.04 53.11 50.98 49.12 50.58 48.38 46.76 48.16 46.74 46.86 46.58 44.20 37.96 36.69 41.02 50.36 49.42 50.54 50.33 51.25 52.02 52.92 53.34
61.70 55.77 64.71 64.42 55.34 57.57 54.66 55.66 51.53 54.49 56.51 55.71 55.88 54.62 53.23 53.27 51.65 50.90 49.82 53.36 55.09 54.36 50.48 53.11 51.25 46.29 48.34 50.77 50.82 48.04 45.96 47.30 44.09 40.89 44.10 42.40 41.76 52.45 51.66 51.82 52.18 51.83 51.74 51.88 52.48
56.84 56.62 64.64 62.98 51.79 53.92 57.17 55.55 54.63 53.66 54.42 54.16 53.40 54.36 55.21 52.31 48.89 51.37 51.60 54.77 54.60 52.53 52.15 54.04 48.92 44.38 45.63 48.89 50.71 47.78 48.87 48.67 48.80 48.02 42.25 40.02 42.47 52.97 53.19 51.88 51.58 50.89 50.81 50.79 51.81
56.96 53.19 57.35 59.23 57.35 55.72 55.58 54.25 52.73 55.15 54.87 55.13 54.59 54.89 52.98 51.58 52.94 50.43 50.63 52.64 54.04 53.94 53.53 55.32 49.22 46.44 42.50 45.89 48.56 45.73 46.65 48.03 47.35 44.51 43.03 42.93 44.78 48.40 49.70 49.49 50.33 50.56 50.68 49.89 50.50
58.41 54.74 58.59 54.04 55.48 55.75 55.68 55.64 53.64 52.58 55.01 55.76 53.47 53.02 52.17 50.02 51.15 50.47 52.02 52.38 53.16 52.02 51.45 52.30 45.89 47.91 48.32 49.00 48.30 46.42 45.35 45.74 44.77 45.50 43.08 44.72 44.69 47.53 48.91 49.02 49.71 50.76 50.44 49.42 49.83
53.59 54.26 56.17 54.94 54.83 55.72 52.48 53.69 52.85 53.97 54.16 52.30 51.86 53.17 53.22 51.09 52.29 50.51 52.13 52.17 51.51 52.62 52.12 54.24 46.42 47.48 44.72 47.68 47.53 45.37 47.14 47.14 46.34 46.52 46.47 46.87 45.78 49.98 50.32 50.39 49.51 49.36 48.79 48.86 49.28
58.78 58.70 55.46 51.40 53.35 52.64 51.41 53.27 53.68 55.54 55.46 55.41 54.40 53.39 52.27 53.11 54.83 54.73 55.07 54.99 54.85 52.44 51.77 50.81 48.55 46.58 42.28 46.86 47.12 43.99 47.29 47.61 47.29 46.86 46.93 42.85 46.45 49.32 48.51 48.42 49.29 49.47 49.05 48.83 49.57